This is the latest recevied weather packets stored in our database for station/object N3DXC. If no packets are shown the sender has not sent any weather packets the latest 10 day(s).
| Time | Temp. | Humidity | Pressure | Rain* | Wind** | Luminosity | Snow |
|---|---|---|---|---|---|---|---|
| 1777315213 | 18.89° C | 41% | 1022.2 hPa | 0 mm | - | - | - |
| 1777314913 | 18.33° C | 44% | 1022.3 hPa | 0 mm | - | - | - |
| 1777314614 | 18.33° C | 43% | 1022.3 hPa | 0 mm | - | - | - |
| 1777314315 | 18.33° C | 45% | 1022.5 hPa | 0 mm | - | - | - |
| 1777314016 | 17.78° C | 43% | 1022.5 hPa | 0 mm | - | - | - |
| 1777313713 | 17.78° C | 43% | 1022.4 hPa | 0 mm | - | - | - |
| 1777313413 | 17.78° C | 48% | 1022.4 hPa | 0 mm | - | - | - |
| 1777313113 | 17.78° C | 42% | 1022.6 hPa | 0 mm | - | - | - |
| 1777312813 | 17.22° C | 47% | 1022.6 hPa | 0 mm | - | - | - |
| 1777312513 | 17.78° C | 42% | 1022.6 hPa | 0 mm | - | - | - |
| 1777312213 | 17.78° C | 45% | 1022.7 hPa | 0 mm | - | - | - |
| 1777311913 | 17.78° C | 45% | 1022.8 hPa | 0 mm | - | - | - |
| 1777311613 | 17.78° C | 45% | 1022.8 hPa | 0 mm | - | - | - |
| 1777311313 | 17.78° C | 41% | 1022.8 hPa | 0 mm | - | - | - |
| 1777311017 | 17.78° C | 43% | 1022.7 hPa | 0 mm | - | - | - |
| 1777310717 | 17.22° C | 46% | 1022.7 hPa | 0 mm | - | - | - |
| 1777310413 | 17.22° C | 46% | 1022.8 hPa | 0 mm | - | - | - |
| 1777310115 | 17.22° C | 45% | 1022.8 hPa | 0 mm | - | - | - |
| 1777309814 | 17.22° C | 48% | 1022.9 hPa | 0 mm | - | - | - |
| 1777309513 | 17.22° C | 51% | 1022.9 hPa | 0 mm | - | - | - |
| 1777309213 | 17.22° C | 48% | 1022.8 hPa | 0 mm | - | - | - |
| 1777308913 | 16.67° C | 48% | 1022.7 hPa | 0 mm | - | - | - |
| 1777308613 | 16.67° C | 46% | 1022.9 hPa | 0 mm | - | - | - |
| 1777308313 | 17.22° C | 50% | 1022.9 hPa | 0 mm | - | - | - |
| 1777308016 | 16.67° C | 49% | 1023.1 hPa | 0 mm | - | - | - |
* Rain latest hour (hover to see other rain measurements)
** Current wind speed in m/s (hover to see current wind gust speed)